When you browse on this site, cookies collect data to enhance your experience and personalize the content and advertising you see.
Visit our Privacy Policy to learn more. By continuing to use the site, you agree to this use of cookies and data.
  • In Denmark
  • List of Countries
  • For 7 days
  • Water Temperature
  • Weather Map
  • Weather Widgets
  • user-avatar
    Login

    Hourly Weather Kapan

    Today, 17 August, Saturday

    Time Temperature Precipitation Wind Pressure Humidity
    00:00 +23°C° 0 mm 1 mps 680 mmHg 71%
    01:00 +23°C° 0 mm 1 mps 680 mmHg 73%
    02:00 +22°C° 0 mm 1 mps 680 mmHg 74%
    03:00 +22°C° 0 mm 1 mps 680 mmHg 78%
    04:00 +22°C° 0 mm 1 mps 680 mmHg 77%
    05:00 +20°C° 0 mm 0 mps 681 mmHg 77%
    06:00 +21°C° 0 mm 0 mps 681 mmHg 76%
    07:00 +25°C° 0 mm 1 mps 681 mmHg 68%
    08:00 +27°C° 0 mm 2 mps 682 mmHg 61%
    09:00 +29°C° 0 mm 3 mps 682 mmHg 53%
    10:00 +30°C° 0 mm 3 mps 682 mmHg 49%
    11:00 +31°C° 0 mm 3 mps 682 mmHg 45%
    12:00 +33°C° 0 mm 4 mps 682 mmHg 42%
    13:00 +33°C° 0 mm 4 mps 681 mmHg 41%
    14:00 +34°C° 0 mm 4 mps 681 mmHg 40%
    15:00 +34°C° 0 mm 4 mps 680 mmHg 39%
    16:00 +32°C° 0 mm 4 mps 680 mmHg 42%
    17:00 +30°C° 0 mm 3 mps 680 mmHg 45%
    18:00 +29°C° 0 mm 3 mps 680 mmHg 48%
    19:00 +27°C° 0 mm 2 mps 680 mmHg 52%
    20:00 +26°C° 0 mm 2 mps 680 mmHg 57%
    21:00 +24°C° 0 mm 1 mps 681 mmHg 61%
    22:00 +23°C° 0 mm 1 mps 681 mmHg 60%
    23:00 +23°C° 0 mm 1 mps 681 mmHg 60%

    Tomorrow, 18 August, Sunday

    Time Temperature Precipitation Wind Pressure Humidity
    00:00 +22°C° 0 mm 1 mps 681 mmHg 60%
    01:00 +22°C° 0 mm 1 mps 681 mmHg 60%
    02:00 +22°C° 0 mm 1 mps 681 mmHg 61%
    03:00 +22°C° 0 mm 1 mps 682 mmHg 62%
    04:00 +22°C° 0 mm 1 mps 682 mmHg 61%
    05:00 +22°C° 0 mm 1 mps 682 mmHg 59%
    06:00 +22°C° 0 mm 1 mps 682 mmHg 58%
    07:00 +25°C° 0 mm 2 mps 683 mmHg 50%
    08:00 +27°C° 0 mm 2 mps 683 mmHg 41%
    09:00 +29°C° 0 mm 2 mps 684 mmHg 33%
    10:00 +30°C° 0 mm 3 mps 684 mmHg 29%
    11:00 +33°C° 0 mm 3 mps 684 mmHg 25%
    12:00 +34°C° 0 mm 3 mps 684 mmHg 21%
    13:00 +34°C° 0 mm 3 mps 683 mmHg 21%
    14:00 +35°C° 0 mm 4 mps 683 mmHg 21%
    15:00 +35°C° 0 mm 4 mps 682 mmHg 20%
    16:00 +34°C° 0 mm 3 mps 682 mmHg 22%
    17:00 +31°C° 0 mm 3 mps 682 mmHg 25%
    18:00 +30°C° 0 mm 2 mps 682 mmHg 27%
    19:00 +28°C° 0 mm 2 mps 682 mmHg 29%
    20:00 +26°C° 0 mm 2 mps 683 mmHg 32%
    21:00 +24°C° 0 mm 2 mps 683 mmHg 34%
    22:00 +24°C° 0 mm 2 mps 683 mmHg 34%
    23:00 +24°C° 0 mm 1 mps 683 mmHg 33%

    Day after tomorrow, 19 August, Monday

    Time Temperature Precipitation Wind Pressure Humidity
    00:00 +24°C° 0 mm 1 mps 683 mmHg 33%
    01:00 +24°C° 0 mm 1 mps 683 mmHg 33%
    02:00 +24°C° 0 mm 1 mps 683 mmHg 33%
    03:00 +23°C° 0 mm 1 mps 683 mmHg 33%
    04:00 +23°C° 0 mm 1 mps 684 mmHg 32%
    05:00 +24°C° 0 mm 1 mps 684 mmHg 32%
    06:00 +24°C° 0 mm 1 mps 685 mmHg 31%
    07:00 +26°C° 0 mm 2 mps 685 mmHg 27%
    08:00 +29°C° 0 mm 2 mps 686 mmHg 24%
    09:00 +31°C° 0 mm 2 mps 687 mmHg 20%
    10:00 +33°C° 0 mm 3 mps 687 mmHg 18%
    11:00 +35°C° 0 mm 3 mps 687 mmHg 16%
    12:00 +36°C° 0 mm 4 mps 687 mmHg 13%
    13:00 +36°C° 0 mm 4 mps 687 mmHg 14%
    14:00 +36°C° 0 mm 4 mps 686 mmHg 14%
    15:00 +36°C° 0 mm 4 mps 686 mmHg 14%
    16:00 +34°C° 0 mm 4 mps 686 mmHg 16%
    17:00 +33°C° 0 mm 3 mps 686 mmHg 19%
    18:00 +30°C° 0 mm 2 mps 686 mmHg 22%
    19:00 +29°C° 0 mm 2 mps 686 mmHg 24%
    20:00 +27°C° 0 mm 2 mps 686 mmHg 27%
    21:00 +25°C° 0 mm 2 mps 686 mmHg 29%
    22:00 +24°C° 0 mm 2 mps 686 mmHg 30%
    23:00 +24°C° 0 mm 2 mps 686 mmHg 31%

    20 August, Tuesday

    Time Temperature Precipitation Wind Pressure Humidity
    00:00 +24°C° 0 mm 2 mps 687 mmHg 32%
    01:00 +23°C° 0 mm 2 mps 687 mmHg 33%
    02:00 +23°C° 0 mm 2 mps 687 mmHg 33%
    03:00 +22°C° 0 mm 1 mps 687 mmHg 34%
    04:00 +23°C° 0 mm 1 mps 687 mmHg 34%
    05:00 +23°C° 0 mm 1 mps 687 mmHg 33%
    06:00 +23°C° 0 mm 1 mps 688 mmHg 33%
    07:00 +25°C° 0 mm 2 mps 688 mmHg 28%
    08:00 +28°C° 0 mm 2 mps 689 mmHg 23%
    09:00 +30°C° 0 mm 2 mps 689 mmHg 18%
    10:00 +32°C° 0 mm 2 mps 689 mmHg 16%
    11:00 +34°C° 0 mm 3 mps 689 mmHg 14%
    12:00 +35°C° 0 mm 3 mps 689 mmHg 12%
    13:00 +36°C° 0 mm 4 mps 688 mmHg 11%
    14:00 +36°C° 0 mm 4 mps 688 mmHg 11%
    15:00 +36°C° 0 mm 4 mps 688 mmHg 11%
    16:00 +35°C° 0 mm 4 mps 687 mmHg 13%
    17:00 +33°C° 0 mm 3 mps 687 mmHg 16%
    18:00 +31°C° 0 mm 3 mps 687 mmHg 18%
    19:00 +29°C° 0 mm 2 mps 687 mmHg 21%
    20:00 +27°C° 0 mm 2 mps 687 mmHg 24%
    21:00 +25°C° 0 mm 2 mps 686 mmHg 26%
    22:00 +24°C° 0 mm 2 mps 686 mmHg 28%
    23:00 +24°C° 0 mm 2 mps 686 mmHg 30%

    21 August, Wednesday

    Time Temperature Precipitation Wind Pressure Humidity
    00:00 +23°C° 0 mm 2 mps 686 mmHg 31%
    01:00 +23°C° 0 mm 2 mps 686 mmHg 32%
    02:00 +23°C° 0 mm 2 mps 686 mmHg 33%
    03:00 +23°C° 0 mm 2 mps 686 mmHg 33%
    04:00 +23°C° 0 mm 2 mps 686 mmHg 34%
    05:00 +23°C° 0 mm 1 mps 687 mmHg 34%
    06:00 +23°C° 0 mm 1 mps 687 mmHg 34%
    07:00 +25°C° 0 mm 2 mps 687 mmHg 29%
    08:00 +28°C° 0 mm 2 mps 688 mmHg 25%
    09:00 +30°C° 0 mm 2 mps 688 mmHg 20%
    10:00 +31°C° 0 mm 3 mps 688 mmHg 18%
    11:00 +33°C° 0 mm 3 mps 688 mmHg 16%
    12:00 +35°C° 0 mm 4 mps 687 mmHg 15%
    13:00 +35°C° 0 mm 4 mps 687 mmHg 14%
    14:00 +35°C° 0 mm 4 mps 687 mmHg 14%
    15:00 +35°C° 0 mm 4 mps 686 mmHg 14%
    16:00 +34°C° 0 mm 3 mps 686 mmHg 16%
    17:00 +33°C° 0 mm 3 mps 686 mmHg 17%
    18:00 +30°C° 0 mm 3 mps 685 mmHg 19%
    19:00 +28°C° 0 mm 2 mps 685 mmHg 22%
    20:00 +26°C° 0 mm 2 mps 685 mmHg 25%
    21:00 +24°C° 0 mm 2 mps 685 mmHg 28%
    22:00 +24°C° 0 mm 2 mps 685 mmHg 29%
    23:00 +23°C° 0 mm 2 mps 685 mmHg 31%

    22 August, Thursday

    Time Temperature Precipitation Wind Pressure Humidity
    00:00 +23°C° 0 mm 2 mps 685 mmHg 33%
    01:00 +23°C° 0 mm 2 mps 685 mmHg 33%
    02:00 +21°C° 0 mm 2 mps 685 mmHg 33%
    03:00 +21°C° 0 mm 2 mps 685 mmHg 34%
    04:00 +21°C° 0 mm 2 mps 685 mmHg 33%
    05:00 +23°C° 0 mm 2 mps 685 mmHg 33%
    06:00 +23°C° 0 mm 1 mps 685 mmHg 33%
    07:00 +25°C° 0 mm 2 mps 686 mmHg 29%
    08:00 +28°C° 0 mm 2 mps 686 mmHg 25%
    09:00 +30°C° 0 mm 2 mps 686 mmHg 21%
    10:00 +31°C° 0 mm 3 mps 686 mmHg 19%
    11:00 +34°C° 0 mm 3 mps 686 mmHg 17%
    12:00 +35°C° 0 mm 4 mps 685 mmHg 16%
    13:00 +35°C° 0 mm 4 mps 685 mmHg 16%
    14:00 +35°C° 0 mm 4 mps 684 mmHg 16%
    15:00 +35°C° 0 mm 4 mps 684 mmHg 16%
    16:00 +34°C° 0 mm 3 mps 684 mmHg 18%
    17:00 +33°C° 0 mm 3 mps 683 mmHg 20%
    18:00 +30°C° 0 mm 3 mps 683 mmHg 22%
    19:00 +28°C° 0 mm 2 mps 683 mmHg 26%
    20:00 +26°C° 0 mm 2 mps 683 mmHg 30%
    21:00 +24°C° 0 mm 1 mps 683 mmHg 33%
    22:00 +24°C° 0 mm 2 mps 683 mmHg 34%
    23:00 +23°C° 0 mm 2 mps 683 mmHg 35%
    Show more